• In Hungary
  • List of Countries
  • For 7 days
  • Water Temperature
  • Satellite Maps
  • Weather Map
  • News
  • Weather Widgets
  • user-avatar
    Login

    Hourly Weather Kweta

    Today, 20 November, Monday

    Time Temperature Precipitation Wind Pressure Humidity
    00:00 +7°C° 0 mm 1 mps 619 mmHg 38%
    01:00 +6°C° 0 mm 1 mps 619 mmHg 39%
    02:00 +6°C° 0 mm 1 mps 618 mmHg 40%
    03:00 +5°C° 0 mm 1 mps 618 mmHg 40%
    04:00 +5°C° 0 mm 1 mps 618 mmHg 40%
    05:00 +5°C° 0 mm 1 mps 618 mmHg 38%
    06:00 +6°C° 0 mm 1 mps 619 mmHg 36%
    07:00 +6°C° 0 mm 1 mps 619 mmHg 34%
    08:00 +8°C° 0 mm 1 mps 620 mmHg 28%
    09:00 +10°C° 0 mm 1 mps 621 mmHg 23%
    10:00 +12°C° 0 mm 1 mps 622 mmHg 18%
    11:00 +13°C° 0 mm 1 mps 621 mmHg 17%
    12:00 +14°C° 0 mm 1 mps 621 mmHg 15%
    13:00 +14°C° 0 mm 2 mps 621 mmHg 14%
    14:00 +14°C° 0 mm 2 mps 621 mmHg 14%
    15:00 +14°C° 0 mm 2 mps 620 mmHg 15%
    16:00 +13°C° 0 mm 2 mps 620 mmHg 16%
    17:00 +12°C° 0 mm 1 mps 620 mmHg 18%
    18:00 +11°C° 0 mm 1 mps 620 mmHg 20%
    19:00 +10°C° 0 mm 1 mps 620 mmHg 22%
    20:00 +9°C° 0 mm 1 mps 619 mmHg 24%
    21:00 +9°C° 0 mm 1 mps 619 mmHg 25%
    22:00 +8°C° 0 mm 1 mps 619 mmHg 27%
    23:00 +8°C° 0 mm 1 mps 618 mmHg 27%

    Tomorrow, 21 November, Tuesday

    Time Temperature Precipitation Wind Pressure Humidity
    00:00 +7°C° 0 mm 1 mps 618 mmHg 28%
    01:00 +6°C° 0 mm 1 mps 617 mmHg 29%
    02:00 +6°C° 0 mm 1 mps 617 mmHg 29%
    03:00 +6°C° 0 mm 1 mps 617 mmHg 30%
    04:00 +5°C° 0 mm 1 mps 617 mmHg 30%
    05:00 +6°C° 0 mm 1 mps 617 mmHg 29%
    06:00 +6°C° 0 mm 1 mps 617 mmHg 27%
    07:00 +6°C° 0 mm 1 mps 618 mmHg 26%
    08:00 +8°C° 0 mm 1 mps 619 mmHg 22%
    09:00 +10°C° 0 mm 0 mps 620 mmHg 18%
    10:00 +12°C° 0 mm 0 mps 621 mmHg 14%
    11:00 +13°C° 0 mm 1 mps 620 mmHg 12%
    12:00 +14°C° 0 mm 1 mps 620 mmHg 11%
    13:00 +15°C° 0 mm 2 mps 620 mmHg 10%
    14:00 +14°C° 0 mm 2 mps 620 mmHg 10%
    15:00 +14°C° 0 mm 2 mps 619 mmHg 11%
    16:00 +14°C° 0 mm 2 mps 619 mmHg 11%
    17:00 +12°C° 0 mm 1 mps 619 mmHg 13%
    18:00 +11°C° 0 mm 1 mps 618 mmHg 15%
    19:00 +8°C° 0 mm 0 mps 618 mmHg 17%
    20:00 +8°C° 0 mm 0 mps 618 mmHg 17%
    21:00 +7°C° 0 mm 0 mps 617 mmHg 18%
    22:00 +6°C° 0 mm 0 mps 617 mmHg 19%
    23:00 +6°C° 0 mm 0 mps 617 mmHg 19%

    Day after tomorrow, 22 November, Wednesday

    Time Temperature Precipitation Wind Pressure Humidity
    00:00 +5°C° 0 mm 0 mps 616 mmHg 19%
    01:00 +5°C° 0 mm 0 mps 616 mmHg 19%
    02:00 +6°C° 0 mm 1 mps 616 mmHg 19%
    03:00 +5°C° 0 mm 1 mps 615 mmHg 18%
    04:00 +5°C° 0 mm 1 mps 615 mmHg 18%
    05:00 +6°C° 0 mm 1 mps 616 mmHg 17%
    06:00 +6°C° 0 mm 1 mps 616 mmHg 15%
    07:00 +5°C° 0 mm 0 mps 617 mmHg 14%
    08:00 +9°C° 0 mm 1 mps 618 mmHg 12%
    09:00 +12°C° 0 mm 1 mps 619 mmHg 9%
    10:00 +14°C° 0 mm 1 mps 620 mmHg 7%
    11:00 +15°C° 0 mm 1 mps 620 mmHg 6%
    12:00 +16°C° 0 mm 1 mps 619 mmHg 6%
    13:00 +16°C° 0 mm 1 mps 619 mmHg 6%
    14:00 +16°C° 0 mm 1 mps 619 mmHg 6%
    15:00 +15°C° 0 mm 1 mps 619 mmHg 7%
    16:00 +15°C° 0 mm 1 mps 618 mmHg 8%
    17:00 +14°C° 0 mm 1 mps 618 mmHg 9%
    18:00 +13°C° 0 mm 1 mps 618 mmHg 10%
    19:00 +11°C° 0 mm 0 mps 618 mmHg 11%
    20:00 +11°C° 0 mm 0 mps 618 mmHg 11%
    21:00 +11°C° 0 mm 0 mps 618 mmHg 12%
    22:00 +11°C° 0 mm 0 mps 618 mmHg 12%
    23:00 +10°C° 0 mm 0 mps 617 mmHg 13%

    23 November, Thursday

    Time Temperature Precipitation Wind Pressure Humidity
    00:00 +10°C° 0 mm 0 mps 617 mmHg 13%
    01:00 +9°C° 0 mm 0 mps 617 mmHg 14%
    02:00 +9°C° 0 mm 0 mps 616 mmHg 14%
    03:00 +9°C° 0 mm 0 mps 616 mmHg 14%
    04:00 +9°C° 0 mm 0 mps 616 mmHg 15%
    05:00 +9°C° 0 mm 0 mps 616 mmHg 15%
    06:00 +9°C° 0 mm 0 mps 617 mmHg 15%
    07:00 +11°C° 0 mm 1 mps 617 mmHg 16%
    08:00 +12°C° 0 mm 1 mps 618 mmHg 15%
    09:00 +14°C° 0 mm 1 mps 619 mmHg 14%
    10:00 +15°C° 0 mm 1 mps 619 mmHg 13%
    11:00 +16°C° 0 mm 1 mps 619 mmHg 12%
    12:00 +16°C° 0 mm 2 mps 619 mmHg 11%
    13:00 +17°C° 0 mm 2 mps 619 mmHg 10%
    14:00 +17°C° 0 mm 2 mps 618 mmHg 11%
    15:00 +17°C° 0 mm 2 mps 618 mmHg 11%
    16:00 +16°C° 0 mm 2 mps 618 mmHg 11%
    17:00 +15°C° 0 mm 1 mps 618 mmHg 12%
    18:00 +13°C° 0 mm 1 mps 618 mmHg 14%
    19:00 +12°C° 0 mm 1 mps 617 mmHg 15%
    20:00 +11°C° 0 mm 1 mps 617 mmHg 16%
    21:00 +11°C° 0 mm 1 mps 617 mmHg 17%
    22:00 +9°C° 0 mm 0 mps 617 mmHg 17%
    23:00 +10°C° 0 mm 1 mps 617 mmHg 18%

    24 November, Friday

    Time Temperature Precipitation Wind Pressure Humidity
    00:00 +10°C° 0 mm 1 mps 617 mmHg 18%
    01:00 +9°C° 0 mm 1 mps 616 mmHg 19%
    02:00 +9°C° 0 mm 1 mps 616 mmHg 19%
    03:00 +9°C° 0 mm 1 mps 616 mmHg 20%
    04:00 +8°C° 0 mm 1 mps 616 mmHg 20%
    05:00 +9°C° 0 mm 1 mps 616 mmHg 20%
    06:00 +9°C° 0 mm 1 mps 617 mmHg 20%
    07:00 +10°C° 0 mm 1 mps 617 mmHg 21%
    08:00 +12°C° 0 mm 1 mps 618 mmHg 19%
    09:00 +14°C° 0 mm 1 mps 619 mmHg 18%
    10:00 +16°C° 0 mm 1 mps 620 mmHg 17%
    11:00 +17°C° 0 mm 2 mps 620 mmHg 17%
    12:00 +17°C° 0 mm 2 mps 620 mmHg 17%
    13:00 +18°C° 0 mm 2 mps 619 mmHg 17%
    14:00 +18°C° 0 mm 2 mps 619 mmHg 18%
    15:00 +17°C° 0 mm 2 mps 619 mmHg 19%
    16:00 +17°C° 0 mm 2 mps 619 mmHg 20%
    17:00 +16°C° 0 mm 2 mps 619 mmHg 22%
    18:00 +14°C° 0 mm 1 mps 619 mmHg 24%
    19:00 +13°C° 0 mm 1 mps 619 mmHg 26%
    20:00 +13°C° 0 mm 1 mps 618 mmHg 26%
    21:00 +12°C° 0 mm 1 mps 618 mmHg 27%
    22:00 +12°C° 0 mm 1 mps 618 mmHg 27%
    23:00 +12°C° 0 mm 1 mps 618 mmHg 28%

    25 November, Saturday

    Time Temperature Precipitation Wind Pressure Humidity
    00:00 +11°C° 0 mm 1 mps 618 mmHg 29%
    01:00 +11°C° 0 mm 1 mps 617 mmHg 31%
    02:00 +11°C° 0 mm 1 mps 617 mmHg 34%
    03:00 +11°C° 0 mm 1 mps 617 mmHg 37%
    04:00 +10°C° 0 mm 1 mps 617 mmHg 40%
    05:00 +11°C° 0 mm 1 mps 617 mmHg 41%
    06:00 +11°C° 0 mm 1 mps 618 mmHg 43%
    07:00 +11°C° 0 mm 1 mps 618 mmHg 45%
    08:00 +13°C° 0 mm 2 mps 619 mmHg 43%
    09:00 +15°C° 0 mm 2 mps 620 mmHg 41%
    10:00 +16°C° 0 mm 3 mps 620 mmHg 39%
    11:00 +17°C° 0 mm 4 mps 620 mmHg 37%
    12:00 +18°C° 0 mm 4 mps 620 mmHg 35%
    13:00 +17°C° 0 mm 5 mps 619 mmHg 33%
    14:00 +18°C° 0 mm 4 mps 619 mmHg 34%
    15:00 +17°C° 0 mm 4 mps 619 mmHg 35%
    16:00 +17°C° 0 mm 4 mps 619 mmHg 36%
    17:00 +16°C° 0 mm 3 mps 619 mmHg 41%
    18:00 +15°C° 0 mm 2 mps 620 mmHg 45%
    19:00 +14°C° 0 mm 2 mps 620 mmHg 49%
    20:00 +13°C° 0 mm 2 mps 620 mmHg 52%
    21:00 +13°C° 0 mm 2 mps 620 mmHg 55%
    22:00 +12°C° 0 mm 1 mps 620 mmHg 58%
    23:00 +12°C° 0 mm 1 mps 620 mmHg 60%
    Show more